Regional Weather Roundup
Issued by NWS Lake Charles, LA

Home | Current Version | Previous Version | Text Only | Print | Product List | Glossary On
Versions: 1 2 3 4 5 6 7 8 9 10 11 12 13 14 15 16 17 18 19 20 21 22 23 24 25 26 27 28 29 30 31 32 33 34 35 36 37 38 39 40 41 42 43 44 45 46 47 48 49 50
978
ASUS44 KLCH 220710
RWRLCH
REGIONAL WEATHER ROUNDUP
NATIONAL WEATHER SERVICE LAKE CHARLES LA
100 AM CST WED NOV 22 2017

Note: "fair" indicates few or no clouds below 12,000 feet with no
significant weather and/or obstructions to visibility.


ACROSS SOUTHEAST TEXAS

CITY           SKY/WX    TMP DP  RH WIND       PRES   REMARKS
BEAUMONT       PTCLDY    57  54  89 N13       30.05S
BEAUMONT CITY  CLOUDY    59  54  83 N8        30.07S
ORANGE         CLOUDY    58  56  95 N3        30.08S
JASPER         CLOUDY    56  55  95 N6        30.12S
$$

ACROSS CENTRAL LOUISIANA

CITY           SKY/WX    TMP DP  RH WIND       PRES   REMARKS
LEESVILLE      CLOUDY    55  52  90 N5        30.09R
FULLERTON      CLOUDY    54  53  97 CALM      30.07S
ALEXANDRIA INT CLOUDY    53  52  96 N7        30.08F
ESLER FIELD    CLOUDY    54  52  93 CALM      30.10S
DERIDDER       NOT AVBL
OAKDALE        PTSUNNY   54  52  92 N3        30.08S
OPELOUSAS      CLOUDY    56  52  88 NE6       30.07R
$$

ACROSS SOUTHWEST AND SOUTH CENTRAL LOUISIANA

CITY           SKY/WX    TMP DP  RH WIND       PRES   REMARKS
SULPHUR        CLOUDY    59  54  82 NE8G17    30.07R
LAKE CHARLES   CLOUDY    58  55  90 NE12      30.06R
CHENNAULT INT  CLOUDY    57  55  91 NE7       30.07R
CAMERON PHI    CLOUDY    59  55  88 N9G18     30.05R
DEQUINCY       LGT RAIN  55  53  94 N3        30.09R
JENNINGS       NOT AVBL
LAFAYETTE      LGT RAIN  57  56  96 NE8       30.06S
NEW IBERIA     MOCLDY    57  53  86 NE15      30.06R
ABBEVILLE      CLOUDY    56  56 100 NE7       30.06R
PATTERSON      LGT RAIN  59  57  93 NE8       30.05R
SALT POINT       N/A      1  32 100 VRB3      30.03R
$$

SELECTED SITES ACROSS THE REGION

CITY           SKY/WX    TMP DP  RH WIND       PRES   REMARKS
HOUSTON BUSH   MOCLDY    59  56  89 N8        30.08R
HOUSTON HOBBY  MOCLDY    60  56  86 NE14      30.06S
GALVESTON      CLOUDY    62  59  90 N21G28    30.05R
COLLEGE STAT   MOCLDY    58  57  97 N10       30.14R
CONROE         PTCLDY    57  56  96 N6        30.10S
HUNTSVILLE     MOCLDY    58  55  90 VRB3      30.12R
LUFKIN         CLEAR     54  53  97 N6        30.12S
SHREVEPORT     PTCLDY    53  52  96 N6        30.14S
MONROE         CLOUDY    55  50  83 N5        30.13S
NATCHEZ MS     FOG       50  50 100 CALM      30.11S VSB 3/4
BATON ROUGE    CLOUDY    56  52  86 N8        30.07R
N.O. INTL ARPT LGT RAIN  62  57  83 N6        30.05R
SLIDELL        MOCLDY    58  52  80 N7        30.04R
$$

MARINE REPORTS

STATION/POSITION TIME  SKY/WX   TEMP    WIND        PRES    VSBY
                                AIR SEA DIR/SP/G
                 (UTC)          (F)     (DEG/KT/KT) (MB)    (MI)
BUOY 30 S HIGH I 0550            64 70   20/ 19/ 21 1015.9
WVE H/P(F/S)=  5/ 5

SEA RIM ST PARK  0700            59      20/  9/ 11 1018.0R
PORT ARTHUR      0648               66   10/ 10/ 12 1017.6R
SABINE PASS N    0648               67   10/ 12/ 17 1019.0R
TEXAS POINT      NOT AVBL
CALCASIEU PASS   0648               65   40/ 12/ 18 1016.1R
LK CHARLES BEACH 0648               69              1017.6R
MARSH ISLAND     0600            62                   N/A
FRESH WATER LOCK 0648               64   20/  9/ 13 1016.8R
AMERADA PASS     0648               61   50/  5/  9 1017.0R
$$




USA.gov is the U.S. government's official web portal to all federal, state and local government web resources and services.